Flight Track Log - Related Links

Times and Time Zones

All times are in EDT time to prevent confusion due to time zone crossing. See the CTL22 flight status page for this flight to view local times or setup timezone preferences in your user account.

Time Position Orientation Groundspeed Altitude Reporting Facility
EDT Latitude Longitude Course Direction KTS MPH feet Rate Location/Type
Tue 10:37:05 PM 41.8825 -82.1719 297° West 166 191 6,000  Level FAA TRACON SMA TRACON (SMA)
Tue 10:37:26 PM 41.8883 -82.1897 294° West 167 192 6,000  Level FAA TRACON SMA TRACON (SMA)
Tue 10:37:45 PM 41.8961 -82.2064 302° West 169 194 6,000  Level FAA TRACON SMA TRACON (SMA)
Tue 10:38:05 PM 41.9039 -82.2236 301° West 171 197 6,000  Level FAA TRACON SMA TRACON (SMA)
Tue 10:38:26 PM 41.9122 -82.2453 297° West 171 197 6,000  Level FAA TRACON SMA TRACON (SMA)
Tue 10:38:45 PM 41.9186 -82.2631 296° West 170 196 6,000  Level FAA TRACON SMA TRACON (SMA)
Tue 10:39:06 PM 41.9261 -82.2853 294° West 170 196 6,000  Level FAA TRACON SMA TRACON (SMA)
Tue 10:39:26 PM 41.9322 -82.3028 295° West 170 196 6,000 -154 Level FAA TRACON SMA TRACON (SMA)
Tue 10:39:45 PM 41.9383 -82.3203 295° West 170 196 5,900  Descending FAA TRACON SMA TRACON (SMA)
Tue 10:40:06 PM 41.9467 -82.3425 297° West 170 196 6,000 300 Climbing FAA TRACON SMA TRACON (SMA)
Tue 10:40:25 PM 41.9525 -82.3600 294° West 169 194 6,100  Climbing FAA TRACON SMA TRACON (SMA)
Tue 10:40:46 PM 41.9586 -82.3778 295° West 169 194 6,000 -300 Descending FAA TRACON SMA TRACON (SMA)
Tue 10:41:05 PM 41.9658 -82.4003 293° West 170 196 5,900  Descending FAA TRACON SMA TRACON (SMA)
Tue 10:41:25 PM 41.9722 -82.4183 295° West 171 197 6,000 146 Climbing FAA TRACON SMA TRACON (SMA)
Tue 10:41:46 PM 41.9786 -82.4350 297° West 171 197 6,000  Level FAA TRACON SMA TRACON (SMA)
Tue 10:42:00 PM 41.8568 -82.5912 297° West  Level Estimated
Tue 10:42:05 PM 41.9869 -82.4572 297° West 171 197 6,000  Level FAA TRACON SMA TRACON (SMA)
Tue 10:42:26 PM 41.9939 -82.4744 298° West 172 198 6,000 150 Level FAA TRACON SMA TRACON (SMA)
Tue 10:42:45 PM 42.0003 -82.4944 293° West 172 198 6,100 75 Climbing Cleveland Center
Tue 10:43:46 PM 42.0222 -82.5564 296° West 168 193 6,100  Level Cleveland Center
Tue 10:44:47 PM 42.0400 -82.6131 293° West 171 197 6,100  Level Cleveland Center
Tue 10:45:47 PM 42.0597 -82.6722 294° West 170 196 6,100  Level Cleveland Center
Tue 10:46:48 PM 42.0753 -82.7317 289° West 170 196 6,100  Level Cleveland Center
Tue 10:47:48 PM 42.0931 -82.7881 293° West 165 190 6,100  Level Cleveland Center
Tue 10:48:49 PM 42.1086 -82.8447 290° West 166 191 6,100  Level Cleveland Center
Tue 10:49:50 PM 42.1283 -82.9014 295° West 167 192 6,100  Level Cleveland Center
Tue 10:50:50 PM 42.1500 -82.9639 295° West 170 196 6,100 -50 Level Cleveland Center
Tue 10:51:51 PM 42.1694 -83.0233 294° West 174 200 6,000  Descending Cleveland Center
Tue 10:52:52 PM 42.1892 -83.0831 294° West 170 196 6,100 53 Climbing Cleveland Center
Tue 10:53:45 PM 42.2067 -83.1264 299° West 168 193 6,100  Level FAA TRACON SMA TRACON (SMA)
Tue 10:54:06 PM 42.2142 -83.1483 295° West 168 193 6,100  Level FAA TRACON SMA TRACON (SMA)
Tue 10:54:25 PM 42.2200 -83.1656 295° West 166 191 6,100  Level FAA TRACON SMA TRACON (SMA)
Tue 10:54:46 PM 42.2267 -83.1878 292° West 166 191 6,100 -146 Level FAA TRACON SMA TRACON (SMA)
Tue 10:55:06 PM 42.2314 -83.2053 290° West 165 190 6,000  Descending FAA TRACON SMA TRACON (SMA)
Tue 10:55:25 PM 42.2364 -83.2231 291° West 163 188 6,100 150 Climbing FAA TRACON SMA TRACON (SMA)
Tue 10:55:46 PM 42.2425 -83.2447 291° West 161 185 6,100  Level FAA TRACON SMA TRACON (SMA)
Tue 10:56:05 PM 42.2475 -83.2608 293° West 160 184 6,100  Level FAA TRACON SMA TRACON (SMA)
Tue 10:56:26 PM 42.2539 -83.2819 292° West 164 189 6,100  Level FAA TRACON SMA TRACON (SMA)
Tue 10:56:46 PM 42.2592 -83.2989 293° West 161 185 6,100  Level FAA TRACON SMA TRACON (SMA)
Tue 10:57:06 PM 42.2639 -83.3158 291° West 158 182 6,100  Level FAA TRACON SMA TRACON (SMA)
Tue 10:57:26 PM 42.2700 -83.3364 292° West 159 183 6,100  Level FAA TRACON SMA TRACON (SMA)
Tue 10:57:46 PM 42.2761 -83.3561 293° West 154 177 6,100 -150 Level FAA TRACON SMA TRACON (SMA)
Tue 10:58:06 PM 42.2800 -83.3717 289° West 157 181 6,000  Descending FAA TRACON SMA TRACON (SMA)
Tue 10:58:26 PM 42.2867 -83.3922 294° West 152 175 6,100 150 Climbing FAA TRACON SMA TRACON (SMA)
Tue 10:58:46 PM 42.2914 -83.4086 291° West 154 177 6,100  Level FAA TRACON SMA TRACON (SMA)
Tue 10:59:05 PM 42.2961 -83.4256 291° West 153 176 6,100  Level FAA TRACON SMA TRACON (SMA)
Tue 10:59:26 PM 42.3025 -83.4461 293° West 154 177 6,100  Level FAA TRACON SMA TRACON (SMA)
Tue 10:59:46 PM 42.3081 -83.4631 294° West 158 182 6,100  Level FAA TRACON SMA TRACON (SMA)
Tue 11:00:06 PM 42.3133 -83.4800 293° West 158 182 6,100  Level FAA TRACON SMA TRACON (SMA)
Tue 11:00:26 PM 42.3197 -83.5017 292° West 159 183 6,100  Level FAA TRACON SMA TRACON (SMA)
Tue 11:00:49 PM 42.3250 -83.5186 293° West 159 183 6,100  Level FAA TRACON SMA TRACON (SMA)
Tue 11:01:09 PM 42.3314 -83.5397 292° West 159 183 6,100  Level FAA TRACON SMA TRACON (SMA)
Tue 11:01:26 PM 42.3386 -83.5558 301° West 158 182 6,100  Level FAA TRACON SMA TRACON (SMA)
Tue 11:01:46 PM 42.3453 -83.5728 298° West 162 186 6,100 -150 Level FAA TRACON SMA TRACON (SMA)
Tue 11:02:06 PM 42.3511 -83.5894 295° West 160 184 6,000  Descending FAA TRACON SMA TRACON (SMA)
Tue 11:02:26 PM 42.3586 -83.6108 295° West 162 186 6,100 150 Climbing FAA TRACON SMA TRACON (SMA)
Tue 11:02:46 PM 42.3622 -83.6278 286° West 146 168 6,100  Level FAA TRACON SMA TRACON (SMA)
Tue 11:03:05 PM 42.3661 -83.6450 287° West 148 170 6,100 -150 Level FAA TRACON SMA TRACON (SMA)
Tue 11:03:26 PM 42.3719 -83.6664 290° West 159 183 6,000  Descending FAA TRACON SMA TRACON (SMA)
Tue 11:03:46 PM 42.3783 -83.6836 297° West 163 188 6,100 150 Climbing FAA TRACON SMA TRACON (SMA)
Tue 11:04:06 PM 42.3828 -83.7003 290° West 155 178 6,100 -150 Level FAA TRACON SMA TRACON (SMA)
Tue 11:04:26 PM 42.3878 -83.7214 288° West 158 182 6,000  Descending FAA TRACON SMA TRACON (SMA)
Tue 11:04:45 PM 42.3944 -83.7381 298° West 162 186 6,100 150 Climbing FAA TRACON SMA TRACON (SMA)
Tue 11:05:06 PM 42.3992 -83.7544 291° West 154 177 6,100 146 Level FAA TRACON SMA TRACON (SMA)
Tue 11:05:26 PM 42.4056 -83.7767 291° West 162 186 6,200  Climbing FAA TRACON SMA TRACON (SMA)
Tue 11:05:46 PM 42.4097 -83.7942 288° West 161 185 6,100 -150 Descending FAA TRACON SMA TRACON (SMA)
Tue 11:06:06 PM 42.4128 -83.8122 283° West 170 196 6,100  Level FAA TRACON SMA TRACON (SMA)
Tue 11:06:25 PM 42.4181 -83.8336 288° West 157 181 6,100  Level FAA TRACON SMA TRACON (SMA)
Tue 11:06:46 PM 42.4219 -83.8508 287° West 156 180 6,100  Level FAA TRACON SMA TRACON (SMA)
Tue 11:07:06 PM 42.4283 -83.8672 298° West 173 199 6,100  Level FAA TRACON SMA TRACON (SMA)
Tue 11:07:26 PM 42.4347 -83.8894 291° West 156 180 6,100  Level FAA TRACON SMA TRACON (SMA)
Tue 11:07:46 PM 42.4406 -83.9075 294° West 173 199 6,100  Level FAA TRACON SMA TRACON (SMA)
Tue 11:08:05 PM 42.4461 -83.9253 293° West 165 190 6,100  Level FAA TRACON SMA TRACON (SMA)
Tue 11:08:26 PM 42.4519 -83.9475 290° West 164 189 6,100  Level FAA TRACON SMA TRACON (SMA)
Tue 11:08:46 PM 42.4572 -83.9653 292° West 166 191 6,100  Level FAA TRACON SMA TRACON (SMA)
Tue 11:09:06 PM 42.4622 -83.9833 291° West 166 191 6,100  Level FAA TRACON SMA TRACON (SMA)
Tue 11:09:26 PM 42.4689 -84.0061 292° West 168 193 6,100  Level FAA TRACON SMA TRACON (SMA)
Tue 11:09:45 PM 42.4736 -84.0244 289° West 167 192 6,100 -150 Level FAA TRACON SMA TRACON (SMA)
Tue 11:10:06 PM 42.4769 -84.0428 284° West 166 191 6,000  Descending FAA TRACON SMA TRACON (SMA)
Tue 11:10:26 PM 42.4828 -84.0644 290° West 159 183 6,100 150 Climbing FAA TRACON SMA TRACON (SMA)
Tue 11:10:46 PM 42.4875 -84.0811 291° West 156 180 6,100  Level FAA TRACON SMA TRACON (SMA)
Tue 11:11:06 PM 42.4917 -84.0981 288° West 155 178 6,100  Level FAA TRACON SMA TRACON (SMA)
Tue 11:11:25 PM 42.4964 -84.1197 286° West 156 180 6,100  Level FAA TRACON SMA TRACON (SMA)
Tue 11:11:46 PM 42.5000 -84.1375 285° West 156 180 6,100  Level FAA TRACON SMA TRACON (SMA)
Tue 11:12:06 PM 42.5036 -84.1547 286° West 156 180 6,100  Level FAA TRACON SMA TRACON (SMA)
Tue 11:12:26 PM 42.5108 -84.1761 295° West 160 184 6,100  Level FAA TRACON SMA TRACON (SMA)
Tue 11:12:46 PM 42.5161 -84.1933 293° West 160 184 6,100  Level FAA TRACON SMA TRACON (SMA)
Tue 11:13:05 PM 42.5189 -84.2119 281° West 162 186 6,100  Level FAA TRACON SMA TRACON (SMA)
Tue 11:13:26 PM 42.5242 -84.2339 288° West 159 183 6,100  Level FAA TRACON SMA TRACON (SMA)
Tue 11:13:46 PM 42.5306 -84.2506 297° West 173 199 6,100  Level FAA TRACON SMA TRACON (SMA)
Tue 11:14:06 PM 42.5361 -84.2675 294° West 161 185 6,100  Level FAA TRACON SMA TRACON (SMA)
Tue 11:14:26 PM 42.5431 -84.2889 294° West 162 186 6,100 -154 Level FAA TRACON SMA TRACON (SMA)
Tue 11:14:45 PM 42.5492 -84.3056 296° West 159 183 6,000  Descending FAA TRACON SMA TRACON (SMA)
Tue 11:15:06 PM 42.5539 -84.3231 290° West 160 184 6,100 146 Climbing FAA TRACON SMA TRACON (SMA)
Tue 11:15:26 PM 42.5581 -84.3447 285° West 158 182 6,100  Level FAA TRACON SMA TRACON (SMA)
Tue 11:15:46 PM 42.5619 -84.3619 287° West 155 178 6,100 -150 Level FAA TRACON SMA TRACON (SMA)
Tue 11:16:06 PM 42.5681 -84.3783 297° West 157 181 6,000 -154 Descending FAA TRACON SMA TRACON (SMA)
Tue 11:16:25 PM 42.5753 -84.3992 295° West 158 182 6,000  Level FAA TRACON SMA TRACON (SMA)
Tue 11:16:46 PM 42.5814 -84.4153 297° West 157 181 6,000  Level FAA TRACON SMA TRACON (SMA)
Tue 11:17:06 PM 42.5869 -84.4317 295° West 156 180 6,000  Level FAA TRACON SMA TRACON (SMA)
Tue 11:17:26 PM 42.5883 -84.4358 294° West 156 180 6,000 52 Level FAA TRACON SMA TRACON (SMA)
Tue 11:19:02 PM 42.6167 -84.5356 291° West 157 181 6,100 38 Climbing Chicago Center
Tue 11:20:03 PM 42.6331 -84.5897 292° West 156 180 6,100  Level Chicago Center
Tue 11:21:04 PM 42.6472 -84.6436 290° West 154 177 6,100  Level Chicago Center
Tue 11:22:05 PM 42.6647 -84.6978 294° West 157 181 6,100  Level Chicago Center
Tue 11:23:07 PM 42.6817 -84.7525 293° West 158 182 6,100  Level Chicago Center
Tue 11:24:07 PM 42.6900 -84.8061 282° West 150 173 6,100 -50 Level Chicago Center
Tue 11:25:08 PM 42.7061 -84.8611 292° West 155 178 6,000  Descending Chicago Center
Tue 11:26:09 PM 42.7267 -84.9231 294° West 151 174 6,100 98 Climbing Chicago Center
Tue 11:27:10 PM 42.7436 -84.9747 294° West 151 174 6,200 -246 Climbing Chicago Center
Tue 11:28:11 PM 42.7656 -85.0297 299° West 163 188 5,600 -443 Descending Chicago Center
Tue 11:29:12 PM 42.7858 -85.0875 296° West 167 192 5,300 -293 Descending Chicago Center
Tue 11:30:14 PM 42.8097 -85.1456 299° West 174 200 5,000 -439 Descending Chicago Center
Tue 11:31:15 PM 42.8319 -85.2047 297° West 177 204 4,400 -639 Descending Chicago Center
Tue 11:32:16 PM 42.8669 -85.2567 313° West 185 213 3,700 -689 Descending Chicago Center
Tue 11:33:17 PM 42.8969 -85.3083 308° West 181 208 3,000 -393 Descending Chicago Center
Tue 11:34:18 PM 42.8950 -85.3717 268° West 177 204 2,900 -344 Descending Chicago Center
Tue 11:35:19 PM 42.8897 -85.4228 262° West 154 177 2,300 -787 Descending Chicago Center
Tue 11:36:20 PM 42.8836 -85.4792 262° West 135 155 1,300 -639 Descending Chicago Center
Tue 11:37:21 PM 42.8786 -85.5200 261° West 130 150 1,000 -295 Descending Chicago Center

Login

Don't have an account? Register now (free) for customized features, flight alerts, and more!